Myrtle Beach, SC

11:38 AM EDT on June 23, 2017 (GMT -0400)
Myrtle Beach International

Weather History for KMYR - July, 2013

Change the Weather History Date:

Tuesday, July 9, 2013

  Actual Average Record
Temperature  
Mean Temperature 80 °F -  
Max Temperature 86 °F 84 °F 100 °F (1992)
Min Temperature 73 °F 69 °F 59 °F (1951)
Cooling Degree Days 14    
Growing Degree Days 30 (Base 50)    
Moisture  
Dew Point 71 °F    
Average Humidity 77    
Maximum Humidity 88    
Minimum Humidity 62    
Precipitation  
Precipitation 0.00 in - - ()
Sea Level Pressure  
Sea Level Pressure 30.17 in    
Wind  
Wind Speed 3 mph (SSW)    
Max Wind Speed 17 mph    
Max Gust Speed -    
Visibility 10 miles    
Events      
Averages and records for this station are not official NWS values.
T = Trace of Precipitation, MM = Missing Value Source: NWS Daily Summary

Daily Weather History Graph

Daily Weather History Graph

Search for Another Location

Airport or City:

Trip Planner

Search our weather history database for the weather conditions in past years. The results will help you decide how hot, cold, wet, or windy it might be!

Date:

Astronomy

Jul. 09, 2013 Rise Set
Actual Time 6:12 AM EDT 8:28 PM EDT
Civil Twilight 5:44 AM EDT 8:57 PM EDT
Nautical Twilight 5:09 AM EDT 9:32 PM EDT
Astronomical Twilight 4:31 AM EDT 10:10 PM EDT
Moon 7:29 AM EDT (7/9) 9:12 PM EDT (7/9)
Length of Visible Light 15h 13m
Length of Day
14h 15m
New Moon, 2% of the Moon is Illuminated
Jul 9
New Moon
Jul 15
First Quarter
Jul 22
Full
Jul 29
Last Quarter
Aug 6
New

Hourly Weather History & Observations

Time (EDT) Temp. Heat Index Dew Point Humidity Pressure Visibility Wind Dir Wind Speed Gust Speed Precip Events Conditions
12:15 AM 78.8 °F - 69.8 °F 74% 30.20 in 10.0 mi Calm Calm - N/A   Clear
12:35 AM 78.8 °F - 69.8 °F 74% 30.20 in 10.0 mi SSW 4.6 mph - N/A   Partly Cloudy
12:55 AM 77.0 °F - 69.8 °F 78% 30.19 in 10.0 mi Calm Calm - N/A   Clear
1:15 AM 77.0 °F - 69.8 °F 78% 30.19 in 10.0 mi Calm Calm - N/A   Clear
1:35 AM 75.2 °F - 69.8 °F 83% 30.19 in 10.0 mi Calm Calm - N/A   Clear
1:55 AM 75.2 °F - 69.8 °F 83% 30.19 in 10.0 mi Calm Calm - N/A   Clear
2:15 AM 75.2 °F - 69.8 °F 83% 30.19 in 10.0 mi Calm Calm - N/A   Mostly Cloudy
2:35 AM 73.4 °F - 69.8 °F 88% 30.19 in 10.0 mi Calm Calm - N/A   Scattered Clouds
2:55 AM 73.4 °F - 69.8 °F 88% 30.18 in 10.0 mi Calm Calm - N/A   Clear
3:15 AM 73.4 °F - 69.8 °F 88% 30.17 in 10.0 mi Calm Calm - N/A   Clear
3:35 AM 75.2 °F - 69.8 °F 83% 30.17 in 10.0 mi WSW 4.6 mph - N/A   Clear
3:55 AM 75.2 °F - 69.8 °F 83% 30.17 in 10.0 mi Calm Calm - N/A   Clear
4:15 AM 75.2 °F - 69.8 °F 83% 30.16 in 10.0 mi Calm Calm - N/A   Clear
4:35 AM 75.2 °F - 69.8 °F 83% 30.17 in 10.0 mi Calm Calm - N/A   Clear
4:55 AM 75.2 °F - 69.8 °F 83% 30.17 in 10.0 mi Calm Calm - N/A   Clear
5:15 AM 75.2 °F - 69.8 °F 83% 30.16 in 10.0 mi Calm Calm - N/A   Clear
5:35 AM 75.2 °F - 69.8 °F 83% 30.17 in 10.0 mi Calm Calm - N/A   Clear
5:50 AM 73.4 °F - 69.8 °F 88% 30.17 in 10.0 mi West 4.6 mph - N/A   Clear
6:53 AM 73.4 °F - 69.8 °F 88% 30.18 in 10.0 mi West 3.5 mph - N/A   Clear
7:45 AM 78.8 °F - 71.6 °F 78% 30.18 in 10.0 mi SW 6.9 mph - N/A   Partly Cloudy
8:45 AM 80.6 °F 84.6 °F 71.6 °F 74% 30.19 in 10.0 mi SW 6.9 mph - N/A   Partly Cloudy
9:45 AM 82.4 °F 87.2 °F 71.6 °F 70% 30.20 in 10.0 mi SW 6.9 mph - N/A   Partly Cloudy
10:45 AM 84.2 °F 90.9 °F 73.4 °F 70% 30.20 in 10.0 mi South 10.4 mph - N/A   Scattered Clouds
11:45 AM 84.2 °F 90.9 °F 73.4 °F 70% 30.20 in 10.0 mi South 10.4 mph - N/A   Scattered Clouds
12:45 PM 86.0 °F 91.8 °F 71.6 °F 62% 30.19 in 10.0 mi South 11.5 mph - N/A   Scattered Clouds
1:45 PM 86.0 °F 93.4 °F 73.4 °F 66% 30.18 in 10.0 mi South 15.0 mph - N/A   Scattered Clouds
2:45 PM 86.0 °F 93.4 °F 73.4 °F 66% 30.16 in 10.0 mi South 11.5 mph - N/A   Scattered Clouds
3:50 PM 86.0 °F 93.4 °F 73.4 °F 66% 30.13 in 10.0 mi South 11.5 mph - N/A   Partly Cloudy
4:50 PM 82.4 °F 87.2 °F 71.6 °F 70% 30.13 in 10.0 mi South 11.5 mph - N/A   Clear
5:45 PM 84.2 °F 89.6 °F 71.6 °F 66% 30.12 in 10.0 mi South 17.3 mph - N/A   Clear
7:45 PM 82.4 °F 87.2 °F 71.6 °F 70% 30.13 in 10.0 mi SSW 11.5 mph - N/A   Scattered Clouds
9:45 PM 80.6 °F 84.6 °F 71.6 °F 74% 30.13 in 10.0 mi SSW 11.5 mph - N/A   Clear
11:15 PM 80.6 °F 84.6 °F 71.6 °F 74% 30.15 in 10.0 mi South 9.2 mph - N/A   Clear
11:35 PM 80.6 °F 84.6 °F 71.6 °F 74% 30.15 in 10.0 mi South 8.1 mph - N/A   Clear
11:55 PM 80.6 °F 84.6 °F 71.6 °F 74% 30.15 in 10.0 mi South 8.1 mph - N/A   Partly Cloudy